• In Hungary
  • List of Countries
  • For 7 days
  • Water Temperature
  • Satellite Maps
  • Weather Map
  • News
  • Weather Widgets
  • user-avatar
    Login

    Hourly Weather Bregenz

    Today, 21 September, Thursday

    Time Temperature Precipitation Wind Pressure Humidity
    00:00 +1°C° 0 mm 1 mps 648 mmHg 90%
    01:00 -1°C° 0 mm 2 mps 648 mmHg 88%
    02:00 -1°C° 0 mm 2 mps 648 mmHg 86%
    03:00 +1°C° 0 mm 1 mps 647 mmHg 84%
    04:00 +1°C° 0 mm 1 mps 647 mmHg 82%
    05:00 +1°C° 0 mm 1 mps 647 mmHg 79%
    06:00 +2°C° 0 mm 1 mps 647 mmHg 76%
    07:00 +3°C° 0 mm 1 mps 647 mmHg 73%
    08:00 +6°C° 0 mm 1 mps 648 mmHg 66%
    09:00 +8°C° 0 mm 1 mps 648 mmHg 58%
    10:00 +11°C° 0 mm 1 mps 649 mmHg 51%
    11:00 +12°C° 0 mm 1 mps 649 mmHg 49%
    12:00 +13°C° 0 mm 2 mps 649 mmHg 47%
    13:00 +14°C° 0 mm 2 mps 649 mmHg 46%
    14:00 +13°C° 0 mm 2 mps 649 mmHg 48%
    15:00 +13°C° 0 mm 2 mps 649 mmHg 50%
    16:00 +13°C° 0 mm 2 mps 649 mmHg 52%
    17:00 +11°C° 0 mm 1 mps 648 mmHg 63%
    18:00 +8°C° 0 mm 1 mps 647 mmHg 73%
    19:00 +6°C° 0 mm 1 mps 647 mmHg 83%
    20:00 +5°C° 0 mm 1 mps 647 mmHg 81%
    21:00 +5°C° 0 mm 1 mps 647 mmHg 80%
    22:00 +5°C° 0 mm 1 mps 647 mmHg 78%
    23:00 +5°C° 0 mm 1 mps 647 mmHg 76%

    Tomorrow, 22 September, Friday

    Time Temperature Precipitation Wind Pressure Humidity
    00:00 +5°C° 0 mm 1 mps 647 mmHg 75%
    01:00 +5°C° 0 mm 1 mps 647 mmHg 73%
    02:00 +5°C° 0 mm 1 mps 647 mmHg 73%
    03:00 +4°C° 0 mm 1 mps 647 mmHg 72%
    04:00 +4°C° 0 mm 1 mps 647 mmHg 72%
    05:00 +5°C° 0 mm 1 mps 647 mmHg 71%
    06:00 +5°C° 0 mm 1 mps 647 mmHg 70%
    07:00 +6°C° 0 mm 1 mps 648 mmHg 69%
    08:00 +8°C° 0 mm 1 mps 648 mmHg 63%
    09:00 +11°C° 0 mm 1 mps 649 mmHg 57%
    10:00 +13°C° 0 mm 1 mps 650 mmHg 50%
    11:00 +14°C° 0 mm 1 mps 650 mmHg 49%
    12:00 +15°C° 0 mm 1 mps 650 mmHg 47%
    13:00 +16°C° 0 mm 2 mps 650 mmHg 46%
    14:00 +16°C° 0 mm 1 mps 650 mmHg 48%
    15:00 +15°C° 0 mm 1 mps 650 mmHg 51%
    16:00 +15°C° 0 mm 1 mps 650 mmHg 53%
    17:00 +12°C° 0 mm 1 mps 650 mmHg 63%
    18:00 +10°C° 0 mm 1 mps 649 mmHg 73%
    19:00 +7°C° 0 mm 1 mps 649 mmHg 83%
    20:00 +7°C° 0 mm 1 mps 649 mmHg 83%
    21:00 +7°C° 0 mm 1 mps 649 mmHg 84%
    22:00 +6°C° 0 mm 1 mps 649 mmHg 84%
    23:00 +6°C° 0 mm 1 mps 649 mmHg 83%

    Day after tomorrow, 23 September, Saturday

    Time Temperature Precipitation Wind Pressure Humidity
    00:00 +6°C° 0 mm 1 mps 649 mmHg 81%
    01:00 +6°C° 0 mm 1 mps 649 mmHg 80%
    02:00 +5°C° 0 mm 1 mps 649 mmHg 79%
    03:00 +5°C° 0 mm 1 mps 649 mmHg 78%
    04:00 +5°C° 0 mm 1 mps 649 mmHg 77%
    05:00 +5°C° 0 mm 1 mps 649 mmHg 76%
    06:00 +6°C° 0 mm 1 mps 649 mmHg 76%
    07:00 +6°C° 0 mm 1 mps 649 mmHg 75%
    08:00 +9°C° 0 mm 1 mps 649 mmHg 69%
    09:00 +11°C° 0 mm 1 mps 650 mmHg 62%
    10:00 +14°C° 0 mm 1 mps 651 mmHg 56%
    11:00 +15°C° 0 mm 1 mps 651 mmHg 55%
    12:00 +15°C° 0 mm 1 mps 651 mmHg 54%
    13:00 +16°C° 0 mm 2 mps 651 mmHg 53%
    14:00 +15°C° 0.2 mm 2 mps 650 mmHg 57%
    15:00 +15°C° 0.2 mm 2 mps 650 mmHg 61%
    16:00 +15°C° 0.2 mm 2 mps 650 mmHg 66%
    17:00 +12°C° 0.1 mm 1 mps 649 mmHg 75%
    18:00 +10°C° 0.1 mm 1 mps 649 mmHg 84%
    19:00 +8°C° 0.1 mm 1 mps 648 mmHg 92%
    20:00 +8°C° 0 mm 1 mps 648 mmHg 93%
    21:00 +7°C° 0 mm 1 mps 648 mmHg 94%
    22:00 +7°C° 0 mm 1 mps 648 mmHg 94%
    23:00 +7°C° 0 mm 1 mps 648 mmHg 93%

    24 September, Sunday

    Time Temperature Precipitation Wind Pressure Humidity
    00:00 +6°C° 0 mm 1 mps 648 mmHg 92%
    01:00 +6°C° 0 mm 1 mps 648 mmHg 91%
    02:00 +6°C° 0 mm 1 mps 648 mmHg 90%
    03:00 +6°C° 0 mm 1 mps 647 mmHg 88%
    04:00 +6°C° 0 mm 1 mps 647 mmHg 87%
    05:00 +6°C° 0 mm 1 mps 647 mmHg 86%
    06:00 +7°C° 0 mm 1 mps 648 mmHg 85%
    07:00 +7°C° 0 mm 1 mps 648 mmHg 85%
    08:00 +9°C° 0 mm 1 mps 648 mmHg 80%
    09:00 +10°C° 0 mm 1 mps 648 mmHg 76%
    10:00 +12°C° 0 mm 1 mps 649 mmHg 71%
    11:00 +12°C° 0.2 mm 1 mps 649 mmHg 70%
    12:00 +13°C° 0.2 mm 1 mps 649 mmHg 68%
    13:00 +13°C° 0.2 mm 1 mps 649 mmHg 67%
    14:00 +13°C° 0.4 mm 1 mps 649 mmHg 70%
    15:00 +13°C° 0.4 mm 1 mps 648 mmHg 73%
    16:00 +12°C° 0.4 mm 1 mps 648 mmHg 76%
    17:00 +11°C° 0.2 mm 1 mps 648 mmHg 82%
    18:00 +9°C° 0.2 mm 1 mps 647 mmHg 87%
    19:00 +7°C° 0.2 mm 1 mps 647 mmHg 93%
    20:00 +6°C° 0 mm 1 mps 647 mmHg 93%
    21:00 +6°C° 0 mm 1 mps 647 mmHg 94%
    22:00 +6°C° 0 mm 1 mps 647 mmHg 94%
    23:00 +5°C° 0 mm 1 mps 647 mmHg 94%

    25 September, Monday

    Time Temperature Precipitation Wind Pressure Humidity
    00:00 +5°C° 0 mm 1 mps 646 mmHg 93%
    01:00 +5°C° 0 mm 1 mps 646 mmHg 93%
    02:00 +5°C° 0 mm 1 mps 646 mmHg 92%
    03:00 +4°C° 0 mm 1 mps 646 mmHg 91%
    04:00 +4°C° 0 mm 1 mps 646 mmHg 90%
    05:00 +4°C° 0 mm 1 mps 646 mmHg 90%
    06:00 +5°C° 0 mm 1 mps 646 mmHg 89%
    07:00 +5°C° 0 mm 1 mps 646 mmHg 88%
    08:00 +7°C° 0 mm 1 mps 646 mmHg 79%
    09:00 +10°C° 0 mm 1 mps 647 mmHg 71%
    10:00 +11°C° 0 mm 0 mps 648 mmHg 62%
    11:00 +13°C° 0 mm 1 mps 648 mmHg 58%
    12:00 +14°C° 0 mm 1 mps 648 mmHg 54%
    13:00 +15°C° 0 mm 1 mps 648 mmHg 50%
    14:00 +15°C° 0 mm 1 mps 648 mmHg 53%
    15:00 +14°C° 0 mm 1 mps 647 mmHg 56%
    16:00 +14°C° 0 mm 1 mps 647 mmHg 58%
    17:00 +12°C° 0 mm 1 mps 647 mmHg 69%
    18:00 +9°C° 0 mm 1 mps 647 mmHg 79%
    19:00 +7°C° 0 mm 1 mps 646 mmHg 89%
    20:00 +7°C° 0 mm 1 mps 646 mmHg 90%
    21:00 +6°C° 0 mm 1 mps 646 mmHg 90%
    22:00 +6°C° 0 mm 1 mps 646 mmHg 91%
    23:00 +6°C° 0 mm 1 mps 646 mmHg 90%

    26 September, Tuesday

    Time Temperature Precipitation Wind Pressure Humidity
    00:00 +6°C° 0 mm 1 mps 646 mmHg 90%
    01:00 +6°C° 0 mm 1 mps 646 mmHg 89%
    02:00 +6°C° 0 mm 1 mps 646 mmHg 89%
    03:00 +5°C° 0 mm 1 mps 646 mmHg 89%
    04:00 +5°C° 0 mm 1 mps 646 mmHg 88%
    05:00 +6°C° 0 mm 1 mps 646 mmHg 88%
    06:00 +6°C° 0 mm 1 mps 646 mmHg 87%
    07:00 +6°C° 0 mm 1 mps 646 mmHg 86%
    08:00 +8°C° 0 mm 1 mps 647 mmHg 79%
    09:00 +11°C° 0 mm 1 mps 648 mmHg 71%
    10:00 +12°C° 0 mm 0 mps 648 mmHg 64%
    11:00 +14°C° 0 mm 1 mps 648 mmHg 62%
    12:00 +14°C° 0 mm 1 mps 648 mmHg 60%
    13:00 +15°C° 0 mm 1 mps 648 mmHg 59%
    14:00 +14°C° 0.3 mm 1 mps 648 mmHg 64%
    15:00 +14°C° 0.3 mm 1 mps 648 mmHg 70%
    16:00 +13°C° 0.3 mm 1 mps 648 mmHg 75%
    17:00 +12°C° 0.3 mm 1 mps 648 mmHg 81%
    18:00 +10°C° 0.3 mm 1 mps 648 mmHg 86%
    19:00 +8°C° 0.3 mm 0 mps 648 mmHg 92%
    20:00 +8°C° 0.3 mm 0 mps 648 mmHg 93%
    21:00 +7°C° 0.3 mm 0 mps 648 mmHg 93%
    22:00 +7°C° 0.3 mm 0 mps 648 mmHg 94%
    23:00 +7°C° 0.5 mm 0 mps 648 mmHg 94%
    Show more